Information on these data can be found in provided Readme document
Contact Info: Zachary Fasnacht (zachary.fasnacht@ssaihq.com); Nickolay Krotkov (nickolay.a.krotkov@nasa.gov); Lok Lamsal (lok.lamsal@nasa.gov)

FillValue: -999.
ScaleFactor: 1e15
Units: molecules/cm^2

Date(yyyy-mm-dd),City,Country,LonCenter,LatCenter,BoundingCoordinates,Median,Q1,Q3,Mean,Baseline_Median,Baseline_Q1,Baseline_Q3,Baseline_Mean,NumGoodSamples,NumTotalSamples
2015-01-01,Brazzaville,Rep.ofCongo,15.2429,-4.2634,[14.7429 -4.7634 15.7429 -3.7634],0.471,0.134,0.703,0.499,0.483,0.095,0.867,0.54,100.0,534.0
2015-01-02,Brazzaville,Rep.ofCongo,15.2429,-4.2634,[14.7429 -4.7634 15.7429 -3.7634],0.478,0.16,0.81,0.546,0.497,0.09,0.892,0.555,126.0,545.0
2015-01-03,Brazzaville,Rep.ofCongo,15.2429,-4.2634,[14.7429 -4.7634 15.7429 -3.7634],0.4,0.07,0.714,0.462,0.469,0.074,0.846,0.519,144.0,521.0
2015-01-04,Brazzaville,Rep.ofCongo,15.2429,-4.2634,[14.7429 -4.7634 15.7429 -3.7634],0.4,0.07,0.714,0.462,0.492,0.084,0.859,0.532,144.0,542.0
2015-01-05,Brazzaville,Rep.ofCongo,15.2429,-4.2634,[14.7429 -4.7634 15.7429 -3.7634],0.354,0.078,0.697,0.433,0.486,0.084,0.858,0.524,155.0,518.0
2015-01-06,Brazzaville,Rep.ofCongo,15.2429,-4.2634,[14.7429 -4.7634 15.7429 -3.7634],0.355,0.089,0.71,0.441,0.474,0.071,0.84,0.493,153.0,552.0
2015-01-07,Brazzaville,Rep.ofCongo,15.2429,-4.2634,[14.7429 -4.7634 15.7429 -3.7634],0.355,0.078,0.653,0.404,0.463,0.072,0.821,0.485,172.0,530.0
2015-01-08,Brazzaville,Rep.ofCongo,15.2429,-4.2634,[14.7429 -4.7634 15.7429 -3.7634],0.357,0.078,0.712,0.446,0.461,0.07,0.83,0.492,188.0,543.0
2015-01-09,Brazzaville,Rep.ofCongo,15.2429,-4.2634,[14.7429 -4.7634 15.7429 -3.7634],0.357,0.07,0.714,0.427,0.449,0.066,0.84,0.486,191.0,542.0
2015-01-10,Brazzaville,Rep.ofCongo,15.2429,-4.2634,[14.7429 -4.7634 15.7429 -3.7634],0.357,0.07,0.714,0.427,0.439,0.057,0.839,0.485,191.0,499.0
2015-01-11,Brazzaville,Rep.ofCongo,15.2429,-4.2634,[14.7429 -4.7634 15.7429 -3.7634],0.357,0.069,0.712,0.424,0.438,0.055,0.832,0.48,194.0,521.0
2015-01-12,Brazzaville,Rep.ofCongo,15.2429,-4.2634,[14.7429 -4.7634 15.7429 -3.7634],0.375,0.068,0.87,0.456,0.446,0.066,0.862,0.487,204.0,492.0
2015-01-13,Brazzaville,Rep.ofCongo,15.2429,-4.2634,[14.7429 -4.7634 15.7429 -3.7634],0.335,-0.008,0.87,0.431,0.449,0.05,0.887,0.498,180.0,513.0
2015-01-14,Brazzaville,Rep.ofCongo,15.2429,-4.2634,[14.7429 -4.7634 15.7429 -3.7634],0.375,0.052,0.862,0.454,0.442,0.063,0.87,0.485,196.0,496.0
2015-01-15,Brazzaville,Rep.ofCongo,15.2429,-4.2634,[14.7429 -4.7634 15.7429 -3.7634],0.457,0.066,0.877,0.494,0.46,0.051,0.879,0.478,207.0,525.0
2015-01-16,Brazzaville,Rep.ofCongo,15.2429,-4.2634,[14.7429 -4.7634 15.7429 -3.7634],0.457,0.068,0.873,0.487,0.45,0.029,0.873,0.472,179.0,509.0
2015-01-17,Brazzaville,Rep.ofCongo,15.2429,-4.2634,[14.7429 -4.7634 15.7429 -3.7634],0.412,0.014,0.873,0.471,0.436,0.037,0.87,0.472,173.0,510.0
2015-01-18,Brazzaville,Rep.ofCongo,15.2429,-4.2634,[14.7429 -4.7634 15.7429 -3.7634],0.482,0.089,0.877,0.533,0.449,0.038,0.911,0.49,155.0,523.0
2015-01-19,Brazzaville,Rep.ofCongo,15.2429,-4.2634,[14.7429 -4.7634 15.7429 -3.7634],0.394,-0.042,0.87,0.443,0.399,-0.023,0.852,0.433,174.0,500.0
2015-01-20,Brazzaville,Rep.ofCongo,15.2429,-4.2634,[14.7429 -4.7634 15.7429 -3.7634],0.457,-0.042,0.875,0.468,0.402,-0.024,0.813,0.433,163.0,521.0
2015-01-21,Brazzaville,Rep.ofCongo,15.2429,-4.2634,[14.7429 -4.7634 15.7429 -3.7634],0.457,-0.042,0.875,0.468,0.372,-0.043,0.805,0.417,163.0,495.0
2015-01-22,Brazzaville,Rep.ofCongo,15.2429,-4.2634,[14.7429 -4.7634 15.7429 -3.7634],0.564,-0.042,0.986,0.522,0.41,-0.028,0.838,0.442,143.0,527.0
2015-01-23,Brazzaville,Rep.ofCongo,15.2429,-4.2634,[14.7429 -4.7634 15.7429 -3.7634],0.482,-0.05,0.873,0.456,0.39,-0.044,0.826,0.425,129.0,504.0
2015-01-24,Brazzaville,Rep.ofCongo,15.2429,-4.2634,[14.7429 -4.7634 15.7429 -3.7634],0.482,-0.05,0.873,0.432,0.401,-0.048,0.816,0.421,127.0,517.0
2015-01-25,Brazzaville,Rep.ofCongo,15.2429,-4.2634,[14.7429 -4.7634 15.7429 -3.7634],0.482,-0.05,0.873,0.439,0.392,-0.043,0.791,0.419,143.0,547.0
2015-01-26,Brazzaville,Rep.ofCongo,15.2429,-4.2634,[14.7429 -4.7634 15.7429 -3.7634],0.482,-0.042,0.873,0.456,0.404,-0.03,0.81,0.426,147.0,535.0
2015-01-27,Brazzaville,Rep.ofCongo,15.2429,-4.2634,[14.7429 -4.7634 15.7429 -3.7634],0.467,-0.05,0.824,0.412,0.393,-0.035,0.805,0.422,137.0,555.0
2015-01-28,Brazzaville,Rep.ofCongo,15.2429,-4.2634,[14.7429 -4.7634 15.7429 -3.7634],0.467,0.05,0.819,0.417,0.378,-0.026,0.772,0.401,148.0,526.0
2015-01-29,Brazzaville,Rep.ofCongo,15.2429,-4.2634,[14.7429 -4.7634 15.7429 -3.7634],0.313,-0.157,0.804,0.36,0.367,-0.05,0.783,0.409,123.0,549.0
2015-01-30,Brazzaville,Rep.ofCongo,15.2429,-4.2634,[14.7429 -4.7634 15.7429 -3.7634],0.308,-0.185,0.763,0.324,0.389,-0.014,0.813,0.433,102.0,532.0
2015-01-31,Brazzaville,Rep.ofCongo,15.2429,-4.2634,[14.7429 -4.7634 15.7429 -3.7634],0.308,-0.185,0.8,0.336,0.403,-0.035,0.825,0.438,109.0,561.0
2015-02-01,Brazzaville,Rep.ofCongo,15.2429,-4.2634,[14.7429 -4.7634 15.7429 -3.7634],0.301,-0.05,0.648,0.291,0.405,-0.006,0.792,0.422,109.0,542.0
2015-02-02,Brazzaville,Rep.ofCongo,15.2429,-4.2634,[14.7429 -4.7634 15.7429 -3.7634],0.301,-0.05,0.648,0.291,0.414,-0.007,0.777,0.426,109.0,542.0
2015-02-03,Brazzaville,Rep.ofCongo,15.2429,-4.2634,[14.7429 -4.7634 15.7429 -3.7634],0.407,0.02,0.804,0.405,0.452,-0.0,0.823,0.459,96.0,553.0
2015-02-04,Brazzaville,Rep.ofCongo,15.2429,-4.2634,[14.7429 -4.7634 15.7429 -3.7634],0.403,0.02,0.819,0.428,0.429,0.045,0.824,0.459,115.0,529.0
2015-02-05,Brazzaville,Rep.ofCongo,15.2429,-4.2634,[14.7429 -4.7634 15.7429 -3.7634],0.403,0.02,0.819,0.428,0.446,0.086,0.838,0.479,115.0,549.0
2015-02-06,Brazzaville,Rep.ofCongo,15.2429,-4.2634,[14.7429 -4.7634 15.7429 -3.7634],0.403,0.02,0.819,0.428,0.456,0.06,0.827,0.465,115.0,524.0
2015-02-07,Brazzaville,Rep.ofCongo,15.2429,-4.2634,[14.7429 -4.7634 15.7429 -3.7634],0.403,0.02,0.824,0.434,0.445,0.074,0.779,0.456,97.0,559.0
2015-02-08,Brazzaville,Rep.ofCongo,15.2429,-4.2634,[14.7429 -4.7634 15.7429 -3.7634],0.364,0.02,0.763,0.4,0.422,0.068,0.78,0.455,107.0,538.0
2015-02-09,Brazzaville,Rep.ofCongo,15.2429,-4.2634,[14.7429 -4.7634 15.7429 -3.7634],0.373,0.02,0.763,0.422,0.431,0.068,0.781,0.457,117.0,551.0
2015-02-10,Brazzaville,Rep.ofCongo,15.2429,-4.2634,[14.7429 -4.7634 15.7429 -3.7634],0.335,-0.006,0.691,0.382,0.401,0.056,0.755,0.44,121.0,550.0
2015-02-11,Brazzaville,Rep.ofCongo,15.2429,-4.2634,[14.7429 -4.7634 15.7429 -3.7634],0.335,-0.006,0.691,0.382,0.384,0.062,0.753,0.434,121.0,506.0
2015-02-12,Brazzaville,Rep.ofCongo,15.2429,-4.2634,[14.7429 -4.7634 15.7429 -3.7634],0.326,-0.011,0.691,0.373,0.395,0.069,0.774,0.446,116.0,524.0
2015-02-13,Brazzaville,Rep.ofCongo,15.2429,-4.2634,[14.7429 -4.7634 15.7429 -3.7634],0.326,-0.011,0.691,0.373,0.405,0.069,0.762,0.444,116.0,491.0
2015-02-14,Brazzaville,Rep.ofCongo,15.2429,-4.2634,[14.7429 -4.7634 15.7429 -3.7634],0.324,-0.011,0.702,0.372,0.379,0.051,0.759,0.425,114.0,511.0
2015-02-15,Brazzaville,Rep.ofCongo,15.2429,-4.2634,[14.7429 -4.7634 15.7429 -3.7634],0.324,-0.022,0.691,0.362,0.367,0.049,0.74,0.419,107.0,496.0
2015-02-16,Brazzaville,Rep.ofCongo,15.2429,-4.2634,[14.7429 -4.7634 15.7429 -3.7634],0.334,-0.022,0.731,0.378,0.37,0.054,0.729,0.413,100.0,526.0
2015-02-17,Brazzaville,Rep.ofCongo,15.2429,-4.2634,[14.7429 -4.7634 15.7429 -3.7634],0.373,-0.022,0.745,0.383,0.368,0.049,0.718,0.397,103.0,509.0
2015-02-18,Brazzaville,Rep.ofCongo,15.2429,-4.2634,[14.7429 -4.7634 15.7429 -3.7634],0.373,-0.036,0.745,0.394,0.381,0.055,0.728,0.408,105.0,511.0
2015-02-19,Brazzaville,Rep.ofCongo,15.2429,-4.2634,[14.7429 -4.7634 15.7429 -3.7634],0.346,-0.056,0.765,0.432,0.392,0.051,0.77,0.433,110.0,522.0
2015-02-20,Brazzaville,Rep.ofCongo,15.2429,-4.2634,[14.7429 -4.7634 15.7429 -3.7634],0.346,-0.056,0.765,0.432,0.425,0.094,0.787,0.455,110.0,498.0
2015-02-21,Brazzaville,Rep.ofCongo,15.2429,-4.2634,[14.7429 -4.7634 15.7429 -3.7634],0.346,-0.056,0.765,0.432,0.425,0.091,0.772,0.453,110.0,519.0
2015-02-22,Brazzaville,Rep.ofCongo,15.2429,-4.2634,[14.7429 -4.7634 15.7429 -3.7634],0.324,0.022,0.614,0.385,0.424,0.102,0.757,0.454,131.0,492.0
2015-02-23,Brazzaville,Rep.ofCongo,15.2429,-4.2634,[14.7429 -4.7634 15.7429 -3.7634],0.413,0.039,0.691,0.449,0.432,0.1,0.779,0.457,112.0,524.0
2015-02-24,Brazzaville,Rep.ofCongo,15.2429,-4.2634,[14.7429 -4.7634 15.7429 -3.7634],0.335,-0.012,0.58,0.383,0.427,0.102,0.757,0.451,102.0,502.0
2015-02-25,Brazzaville,Rep.ofCongo,15.2429,-4.2634,[14.7429 -4.7634 15.7429 -3.7634],0.378,0.039,0.648,0.427,0.468,0.129,0.831,0.488,122.0,514.0
2015-02-26,Brazzaville,Rep.ofCongo,15.2429,-4.2634,[14.7429 -4.7634 15.7429 -3.7634],0.355,0.024,0.63,0.411,0.452,0.089,0.812,0.476,130.0,544.0
2015-02-27,Brazzaville,Rep.ofCongo,15.2429,-4.2634,[14.7429 -4.7634 15.7429 -3.7634],0.355,0.024,0.63,0.413,0.446,0.088,0.822,0.483,124.0,533.0
2015-02-28,Brazzaville,Rep.ofCongo,15.2429,-4.2634,[14.7429 -4.7634 15.7429 -3.7634],0.372,-0.006,0.648,0.423,0.425,0.047,0.83,0.475,140.0,554.0
2015-03-01,Brazzaville,Rep.ofCongo,15.2429,-4.2634,[14.7429 -4.7634 15.7429 -3.7634],0.406,0.039,0.655,0.434,0.431,0.061,0.817,0.475,151.0,526.0
2015-03-02,Brazzaville,Rep.ofCongo,15.2429,-4.2634,[14.7429 -4.7634 15.7429 -3.7634],0.406,0.039,0.655,0.434,0.419,0.056,0.819,0.469,151.0,545.0
2015-03-03,Brazzaville,Rep.ofCongo,15.2429,-4.2634,[14.7429 -4.7634 15.7429 -3.7634],0.406,0.039,0.664,0.435,0.426,0.057,0.833,0.477,138.0,527.0
2015-03-04,Brazzaville,Rep.ofCongo,15.2429,-4.2634,[14.7429 -4.7634 15.7429 -3.7634],0.406,0.039,0.639,0.433,0.455,0.093,0.839,0.492,137.0,554.0
2015-03-05,Brazzaville,Rep.ofCongo,15.2429,-4.2634,[14.7429 -4.7634 15.7429 -3.7634],0.406,0.095,0.703,0.439,0.445,0.106,0.839,0.493,149.0,536.0
2015-03-06,Brazzaville,Rep.ofCongo,15.2429,-4.2634,[14.7429 -4.7634 15.7429 -3.7634],0.429,0.116,0.703,0.452,0.446,0.114,0.833,0.499,154.0,537.0
2015-03-07,Brazzaville,Rep.ofCongo,15.2429,-4.2634,[14.7429 -4.7634 15.7429 -3.7634],0.435,0.116,0.713,0.48,0.434,0.103,0.851,0.493,168.0,549.0
2015-03-08,Brazzaville,Rep.ofCongo,15.2429,-4.2634,[14.7429 -4.7634 15.7429 -3.7634],0.435,0.126,0.785,0.485,0.424,0.094,0.842,0.482,172.0,525.0
2015-03-09,Brazzaville,Rep.ofCongo,15.2429,-4.2634,[14.7429 -4.7634 15.7429 -3.7634],0.485,0.167,0.82,0.539,0.455,0.112,0.867,0.514,151.0,545.0
2015-03-10,Brazzaville,Rep.ofCongo,15.2429,-4.2634,[14.7429 -4.7634 15.7429 -3.7634],0.466,0.142,0.819,0.524,0.454,0.106,0.89,0.515,161.0,520.0
2015-03-11,Brazzaville,Rep.ofCongo,15.2429,-4.2634,[14.7429 -4.7634 15.7429 -3.7634],0.486,0.209,0.853,0.564,0.449,0.108,0.899,0.517,145.0,553.0
2015-03-12,Brazzaville,Rep.ofCongo,15.2429,-4.2634,[14.7429 -4.7634 15.7429 -3.7634],0.486,0.194,0.853,0.569,0.464,0.098,0.903,0.526,114.0,533.0
2015-03-13,Brazzaville,Rep.ofCongo,15.2429,-4.2634,[14.7429 -4.7634 15.7429 -3.7634],0.541,0.246,0.955,0.632,0.514,0.124,0.924,0.557,131.0,545.0
2015-03-14,Brazzaville,Rep.ofCongo,15.2429,-4.2634,[14.7429 -4.7634 15.7429 -3.7634],0.514,0.244,0.955,0.622,0.527,0.157,0.955,0.565,133.0,544.0
2015-03-15,Brazzaville,Rep.ofCongo,15.2429,-4.2634,[14.7429 -4.7634 15.7429 -3.7634],0.514,0.248,0.955,0.627,0.522,0.167,0.896,0.559,117.0,501.0
2015-03-16,Brazzaville,Rep.ofCongo,15.2429,-4.2634,[14.7429 -4.7634 15.7429 -3.7634],0.601,0.194,1.082,0.662,0.548,0.162,0.929,0.572,124.0,519.0
2015-03-17,Brazzaville,Rep.ofCongo,15.2429,-4.2634,[14.7429 -4.7634 15.7429 -3.7634],0.626,0.194,1.085,0.662,0.587,0.194,0.948,0.593,143.0,488.0
2015-03-18,Brazzaville,Rep.ofCongo,15.2429,-4.2634,[14.7429 -4.7634 15.7429 -3.7634],0.626,0.194,1.085,0.662,0.577,0.179,0.925,0.593,143.0,509.0
2015-03-19,Brazzaville,Rep.ofCongo,15.2429,-4.2634,[14.7429 -4.7634 15.7429 -3.7634],0.626,0.239,1.085,0.664,0.546,0.172,0.936,0.579,141.0,493.0
2015-03-20,Brazzaville,Rep.ofCongo,15.2429,-4.2634,[14.7429 -4.7634 15.7429 -3.7634],0.677,0.252,1.133,0.716,0.586,0.175,0.931,0.589,135.0,520.0
2015-03-21,Brazzaville,Rep.ofCongo,15.2429,-4.2634,[14.7429 -4.7634 15.7429 -3.7634],0.677,0.185,1.108,0.698,0.588,0.148,0.925,0.576,106.0,504.0
2015-03-22,Brazzaville,Rep.ofCongo,15.2429,-4.2634,[14.7429 -4.7634 15.7429 -3.7634],0.66,0.166,1.103,0.673,0.542,0.128,0.908,0.557,93.0,503.0
2015-03-23,Brazzaville,Rep.ofCongo,15.2429,-4.2634,[14.7429 -4.7634 15.7429 -3.7634],0.626,0.162,1.161,0.656,0.548,0.135,0.937,0.577,98.0,516.0
2015-03-24,Brazzaville,Rep.ofCongo,15.2429,-4.2634,[14.7429 -4.7634 15.7429 -3.7634],0.53,0.122,0.884,0.56,0.531,0.123,0.886,0.547,116.0,489.0
2015-03-25,Brazzaville,Rep.ofCongo,15.2429,-4.2634,[14.7429 -4.7634 15.7429 -3.7634],0.531,0.122,1.012,0.586,0.544,0.125,0.932,0.566,106.0,508.0
2015-03-26,Brazzaville,Rep.ofCongo,15.2429,-4.2634,[14.7429 -4.7634 15.7429 -3.7634],0.531,0.122,1.012,0.587,0.542,0.12,0.913,0.561,107.0,485.0
2015-03-27,Brazzaville,Rep.ofCongo,15.2429,-4.2634,[14.7429 -4.7634 15.7429 -3.7634],0.531,0.122,0.986,0.583,0.535,0.148,0.888,0.544,110.0,517.0
2015-03-28,Brazzaville,Rep.ofCongo,15.2429,-4.2634,[14.7429 -4.7634 15.7429 -3.7634],0.543,0.252,0.884,0.657,0.539,0.177,0.911,0.578,105.0,495.0
2015-03-29,Brazzaville,Rep.ofCongo,15.2429,-4.2634,[14.7429 -4.7634 15.7429 -3.7634],0.651,0.271,1.152,0.718,0.527,0.17,0.941,0.58,137.0,505.0
2015-03-30,Brazzaville,Rep.ofCongo,15.2429,-4.2634,[14.7429 -4.7634 15.7429 -3.7634],0.651,0.271,1.156,0.743,0.542,0.2,0.971,0.604,153.0,535.0
2015-03-31,Brazzaville,Rep.ofCongo,15.2429,-4.2634,[14.7429 -4.7634 15.7429 -3.7634],0.664,0.271,1.15,0.75,0.551,0.206,0.974,0.615,160.0,524.0
2015-04-01,Brazzaville,Rep.ofCongo,15.2429,-4.2634,[14.7429 -4.7634 15.7429 -3.7634],0.701,0.332,1.15,0.797,0.554,0.236,0.97,0.613,161.0,544.0
2015-04-02,Brazzaville,Rep.ofCongo,15.2429,-4.2634,[14.7429 -4.7634 15.7429 -3.7634],0.701,0.332,1.15,0.797,0.578,0.227,0.972,0.622,161.0,513.0
2015-04-03,Brazzaville,Rep.ofCongo,15.2429,-4.2634,[14.7429 -4.7634 15.7429 -3.7634],0.701,0.332,1.15,0.797,0.6,0.265,1.014,0.659,161.0,535.0
2015-04-04,Brazzaville,Rep.ofCongo,15.2429,-4.2634,[14.7429 -4.7634 15.7429 -3.7634],0.703,0.42,1.027,0.776,0.608,0.283,1.006,0.669,169.0,520.0
2015-04-05,Brazzaville,Rep.ofCongo,15.2429,-4.2634,[14.7429 -4.7634 15.7429 -3.7634],0.694,0.333,1.023,0.744,0.621,0.271,0.996,0.668,205.0,545.0
2015-04-06,Brazzaville,Rep.ofCongo,15.2429,-4.2634,[14.7429 -4.7634 15.7429 -3.7634],0.694,0.354,1.036,0.747,0.671,0.312,1.024,0.706,213.0,533.0
2015-04-07,Brazzaville,Rep.ofCongo,15.2429,-4.2634,[14.7429 -4.7634 15.7429 -3.7634],0.694,0.332,1.028,0.727,0.67,0.321,1.027,0.703,223.0,531.0
2015-04-08,Brazzaville,Rep.ofCongo,15.2429,-4.2634,[14.7429 -4.7634 15.7429 -3.7634],0.758,0.464,1.073,0.792,0.704,0.361,1.058,0.729,205.0,548.0
2015-04-09,Brazzaville,Rep.ofCongo,15.2429,-4.2634,[14.7429 -4.7634 15.7429 -3.7634],0.754,0.442,1.057,0.786,0.703,0.349,1.041,0.722,207.0,521.0
2015-04-10,Brazzaville,Rep.ofCongo,15.2429,-4.2634,[14.7429 -4.7634 15.7429 -3.7634],0.754,0.442,1.057,0.786,0.676,0.346,1.056,0.722,206.0,540.0
2015-04-11,Brazzaville,Rep.ofCongo,15.2429,-4.2634,[14.7429 -4.7634 15.7429 -3.7634],0.701,0.382,1.036,0.751,0.683,0.317,1.052,0.721,227.0,517.0
2015-04-12,Brazzaville,Rep.ofCongo,15.2429,-4.2634,[14.7429 -4.7634 15.7429 -3.7634],0.694,0.341,1.026,0.71,0.651,0.277,1.044,0.685,207.0,552.0
2015-04-13,Brazzaville,Rep.ofCongo,15.2429,-4.2634,[14.7429 -4.7634 15.7429 -3.7634],0.618,0.341,0.967,0.676,0.629,0.268,1.044,0.675,173.0,533.0
2015-04-14,Brazzaville,Rep.ofCongo,15.2429,-4.2634,[14.7429 -4.7634 15.7429 -3.7634],0.664,0.364,0.968,0.678,0.654,0.281,1.052,0.678,189.0,546.0
2015-04-15,Brazzaville,Rep.ofCongo,15.2429,-4.2634,[14.7429 -4.7634 15.7429 -3.7634],0.573,0.35,0.967,0.641,0.6,0.26,1.031,0.648,173.0,545.0
2015-04-16,Brazzaville,Rep.ofCongo,15.2429,-4.2634,[14.7429 -4.7634 15.7429 -3.7634],0.549,0.341,0.9,0.608,0.597,0.24,0.981,0.65,153.0,503.0
2015-04-17,Brazzaville,Rep.ofCongo,15.2429,-4.2634,[14.7429 -4.7634 15.7429 -3.7634],0.549,0.341,0.933,0.613,0.596,0.24,1.018,0.649,157.0,522.0
2015-04-18,Brazzaville,Rep.ofCongo,15.2429,-4.2634,[14.7429 -4.7634 15.7429 -3.7634],0.549,0.341,0.958,0.621,0.575,0.231,0.972,0.623,163.0,493.0
2015-04-19,Brazzaville,Rep.ofCongo,15.2429,-4.2634,[14.7429 -4.7634 15.7429 -3.7634],0.54,0.283,0.968,0.59,0.543,0.202,0.944,0.594,141.0,514.0
2015-04-20,Brazzaville,Rep.ofCongo,15.2429,-4.2634,[14.7429 -4.7634 15.7429 -3.7634],0.542,0.293,0.903,0.591,0.563,0.188,0.919,0.596,124.0,499.0
2015-04-21,Brazzaville,Rep.ofCongo,15.2429,-4.2634,[14.7429 -4.7634 15.7429 -3.7634],0.508,0.269,0.856,0.574,0.549,0.189,0.904,0.577,130.0,526.0
2015-04-22,Brazzaville,Rep.ofCongo,15.2429,-4.2634,[14.7429 -4.7634 15.7429 -3.7634],0.573,0.341,0.934,0.655,0.584,0.204,0.968,0.607,129.0,510.0
2015-04-23,Brazzaville,Rep.ofCongo,15.2429,-4.2634,[14.7429 -4.7634 15.7429 -3.7634],0.556,0.319,0.934,0.634,0.54,0.191,0.904,0.581,157.0,510.0
2015-04-24,Brazzaville,Rep.ofCongo,15.2429,-4.2634,[14.7429 -4.7634 15.7429 -3.7634],0.593,0.343,0.954,0.7,0.553,0.211,0.945,0.61,183.0,524.0
2015-04-25,Brazzaville,Rep.ofCongo,15.2429,-4.2634,[14.7429 -4.7634 15.7429 -3.7634],0.696,0.376,1.246,0.85,0.578,0.214,1.041,0.677,204.0,500.0
2015-04-26,Brazzaville,Rep.ofCongo,15.2429,-4.2634,[14.7429 -4.7634 15.7429 -3.7634],0.771,0.385,1.345,0.917,0.593,0.246,1.099,0.731,180.0,519.0
2015-04-27,Brazzaville,Rep.ofCongo,15.2429,-4.2634,[14.7429 -4.7634 15.7429 -3.7634],0.771,0.385,1.345,0.917,0.599,0.231,1.108,0.736,180.0,491.0
2015-04-28,Brazzaville,Rep.ofCongo,15.2429,-4.2634,[14.7429 -4.7634 15.7429 -3.7634],0.771,0.385,1.345,0.917,0.617,0.231,1.137,0.756,180.0,525.0
2015-04-29,Brazzaville,Rep.ofCongo,15.2429,-4.2634,[14.7429 -4.7634 15.7429 -3.7634],0.763,0.385,1.407,0.926,0.622,0.24,1.174,0.767,153.0,503.0
2015-04-30,Brazzaville,Rep.ofCongo,15.2429,-4.2634,[14.7429 -4.7634 15.7429 -3.7634],0.807,0.443,1.42,0.96,0.661,0.239,1.187,0.786,147.0,517.0
2015-05-01,Brazzaville,Rep.ofCongo,15.2429,-4.2634,[14.7429 -4.7634 15.7429 -3.7634],0.802,0.385,1.42,0.942,0.68,0.231,1.233,0.818,165.0,547.0
2015-05-02,Brazzaville,Rep.ofCongo,15.2429,-4.2634,[14.7429 -4.7634 15.7429 -3.7634],0.931,0.51,1.516,1.067,0.772,0.267,1.284,0.886,177.0,533.0
2015-05-03,Brazzaville,Rep.ofCongo,15.2429,-4.2634,[14.7429 -4.7634 15.7429 -3.7634],0.901,0.486,1.567,1.073,0.808,0.284,1.345,0.919,174.0,546.0
2015-05-04,Brazzaville,Rep.ofCongo,15.2429,-4.2634,[14.7429 -4.7634 15.7429 -3.7634],0.84,0.328,1.516,0.995,0.825,0.273,1.402,0.93,188.0,518.0
2015-05-05,Brazzaville,Rep.ofCongo,15.2429,-4.2634,[14.7429 -4.7634 15.7429 -3.7634],0.871,0.385,1.611,1.062,0.818,0.281,1.435,0.945,169.0,538.0
2015-05-06,Brazzaville,Rep.ofCongo,15.2429,-4.2634,[14.7429 -4.7634 15.7429 -3.7634],0.861,0.347,1.589,1.034,0.806,0.259,1.468,0.945,169.0,521.0
2015-05-07,Brazzaville,Rep.ofCongo,15.2429,-4.2634,[14.7429 -4.7634 15.7429 -3.7634],1.0,0.347,1.786,1.21,0.888,0.265,1.595,1.017,182.0,550.0
2015-05-08,Brazzaville,Rep.ofCongo,15.2429,-4.2634,[14.7429 -4.7634 15.7429 -3.7634],1.085,0.347,1.847,1.28,0.881,0.283,1.611,1.04,168.0,532.0
2015-05-09,Brazzaville,Rep.ofCongo,15.2429,-4.2634,[14.7429 -4.7634 15.7429 -3.7634],1.094,0.296,1.806,1.216,0.895,0.265,1.663,1.058,170.0,533.0
2015-05-10,Brazzaville,Rep.ofCongo,15.2429,-4.2634,[14.7429 -4.7634 15.7429 -3.7634],0.847,0.217,1.611,1.078,0.848,0.273,1.625,1.031,173.0,539.0
2015-05-11,Brazzaville,Rep.ofCongo,15.2429,-4.2634,[14.7429 -4.7634 15.7429 -3.7634],0.84,0.151,1.567,1.056,0.826,0.224,1.525,0.998,175.0,517.0
2015-05-12,Brazzaville,Rep.ofCongo,15.2429,-4.2634,[14.7429 -4.7634 15.7429 -3.7634],0.84,0.151,1.567,1.056,0.84,0.255,1.563,1.022,175.0,540.0
2015-05-13,Brazzaville,Rep.ofCongo,15.2429,-4.2634,[14.7429 -4.7634 15.7429 -3.7634],0.84,0.151,1.567,1.056,0.873,0.266,1.623,1.029,175.0,510.0
2015-05-14,Brazzaville,Rep.ofCongo,15.2429,-4.2634,[14.7429 -4.7634 15.7429 -3.7634],0.84,0.151,1.611,1.057,0.863,0.274,1.649,1.041,170.0,542.0
2015-05-15,Brazzaville,Rep.ofCongo,15.2429,-4.2634,[14.7429 -4.7634 15.7429 -3.7634],0.808,0.123,1.516,0.992,0.88,0.277,1.679,1.062,187.0,519.0
2015-05-16,Brazzaville,Rep.ofCongo,15.2429,-4.2634,[14.7429 -4.7634 15.7429 -3.7634],0.808,0.123,1.476,0.989,0.855,0.273,1.678,1.063,200.0,533.0
2015-05-17,Brazzaville,Rep.ofCongo,15.2429,-4.2634,[14.7429 -4.7634 15.7429 -3.7634],0.603,0.117,1.294,0.877,0.822,0.26,1.631,1.039,198.0,536.0
2015-05-18,Brazzaville,Rep.ofCongo,15.2429,-4.2634,[14.7429 -4.7634 15.7429 -3.7634],0.603,0.117,1.294,0.873,0.818,0.257,1.643,1.025,195.0,498.0
2015-05-19,Brazzaville,Rep.ofCongo,15.2429,-4.2634,[14.7429 -4.7634 15.7429 -3.7634],0.645,0.266,1.331,0.945,0.809,0.281,1.618,1.028,200.0,514.0
2015-05-20,Brazzaville,Rep.ofCongo,15.2429,-4.2634,[14.7429 -4.7634 15.7429 -3.7634],0.795,0.265,1.573,1.021,0.872,0.307,1.715,1.068,218.0,487.0
2015-05-21,Brazzaville,Rep.ofCongo,15.2429,-4.2634,[14.7429 -4.7634 15.7429 -3.7634],0.787,0.265,1.611,1.061,0.885,0.308,1.716,1.086,203.0,507.0
2015-05-22,Brazzaville,Rep.ofCongo,15.2429,-4.2634,[14.7429 -4.7634 15.7429 -3.7634],0.795,0.266,1.476,0.901,0.843,0.283,1.644,1.003,201.0,490.0
2015-05-23,Brazzaville,Rep.ofCongo,15.2429,-4.2634,[14.7429 -4.7634 15.7429 -3.7634],0.802,0.266,1.476,0.926,0.899,0.315,1.724,1.054,199.0,519.0
2015-05-24,Brazzaville,Rep.ofCongo,15.2429,-4.2634,[14.7429 -4.7634 15.7429 -3.7634],0.802,0.304,1.505,0.971,0.932,0.337,1.737,1.073,169.0,503.0
2015-05-25,Brazzaville,Rep.ofCongo,15.2429,-4.2634,[14.7429 -4.7634 15.7429 -3.7634],0.834,0.344,1.611,1.097,0.929,0.344,1.758,1.104,155.0,508.0
2015-05-26,Brazzaville,Rep.ofCongo,15.2429,-4.2634,[14.7429 -4.7634 15.7429 -3.7634],0.907,0.38,1.611,1.142,0.968,0.399,1.769,1.143,172.0,515.0
2015-05-27,Brazzaville,Rep.ofCongo,15.2429,-4.2634,[14.7429 -4.7634 15.7429 -3.7634],0.907,0.38,1.611,1.144,1.087,0.43,1.88,1.222,173.0,491.0
2015-05-28,Brazzaville,Rep.ofCongo,15.2429,-4.2634,[14.7429 -4.7634 15.7429 -3.7634],0.907,0.38,1.611,1.144,1.181,0.478,1.967,1.293,173.0,515.0
2015-05-29,Brazzaville,Rep.ofCongo,15.2429,-4.2634,[14.7429 -4.7634 15.7429 -3.7634],0.907,0.38,1.611,1.144,1.221,0.503,1.997,1.319,173.0,490.0
2015-05-30,Brazzaville,Rep.ofCongo,15.2429,-4.2634,[14.7429 -4.7634 15.7429 -3.7634],1.105,0.44,1.796,1.249,1.352,0.599,2.355,1.593,153.0,522.0
2015-05-31,Brazzaville,Rep.ofCongo,15.2429,-4.2634,[14.7429 -4.7634 15.7429 -3.7634],1.276,0.652,1.829,1.379,1.499,0.748,2.713,1.785,142.0,498.0
2015-06-01,Brazzaville,Rep.ofCongo,15.2429,-4.2634,[14.7429 -4.7634 15.7429 -3.7634],1.285,0.654,1.899,1.413,1.556,0.803,2.919,1.873,128.0,509.0
2015-06-02,Brazzaville,Rep.ofCongo,15.2429,-4.2634,[14.7429 -4.7634 15.7429 -3.7634],1.303,0.654,2.04,1.433,1.831,0.984,3.039,2.064,131.0,538.0
2015-06-03,Brazzaville,Rep.ofCongo,15.2429,-4.2634,[14.7429 -4.7634 15.7429 -3.7634],1.337,0.672,2.287,1.522,2.053,1.111,3.14,2.188,119.0,528.0
2015-06-04,Brazzaville,Rep.ofCongo,15.2429,-4.2634,[14.7429 -4.7634 15.7429 -3.7634],1.285,0.705,2.42,1.569,2.179,1.216,3.366,2.341,109.0,545.0
2015-06-05,Brazzaville,Rep.ofCongo,15.2429,-4.2634,[14.7429 -4.7634 15.7429 -3.7634],1.337,0.802,2.35,1.601,2.222,1.257,3.411,2.4,121.0,516.0
2015-06-06,Brazzaville,Rep.ofCongo,15.2429,-4.2634,[14.7429 -4.7634 15.7429 -3.7634],1.766,1.177,2.761,1.977,2.427,1.502,3.586,2.603,92.0,537.0
2015-06-07,Brazzaville,Rep.ofCongo,15.2429,-4.2634,[14.7429 -4.7634 15.7429 -3.7634],1.766,1.303,2.605,1.941,2.384,1.49,3.537,2.571,104.0,521.0
2015-06-08,Brazzaville,Rep.ofCongo,15.2429,-4.2634,[14.7429 -4.7634 15.7429 -3.7634],1.846,1.344,2.777,2.127,2.435,1.523,3.591,2.638,135.0,549.0
2015-06-09,Brazzaville,Rep.ofCongo,15.2429,-4.2634,[14.7429 -4.7634 15.7429 -3.7634],2.059,1.402,2.945,2.212,2.518,1.576,3.603,2.668,143.0,533.0
2015-06-10,Brazzaville,Rep.ofCongo,15.2429,-4.2634,[14.7429 -4.7634 15.7429 -3.7634],2.198,1.51,3.046,2.344,2.512,1.654,3.582,2.691,140.0,536.0
2015-06-11,Brazzaville,Rep.ofCongo,15.2429,-4.2634,[14.7429 -4.7634 15.7429 -3.7634],2.198,1.578,3.082,2.392,2.51,1.64,3.611,2.715,148.0,547.0
2015-06-12,Brazzaville,Rep.ofCongo,15.2429,-4.2634,[14.7429 -4.7634 15.7429 -3.7634],2.317,1.645,3.172,2.463,2.57,1.723,3.621,2.733,167.0,521.0